Terminal Aerodrome Forecast
Issued by NWS

Home | Current Version | Previous Version | Text Only | Print | Product List | Glossary On
Versions: 1 2 3 4 5 6 7 8 9 10 11 12 13 14 15
000
FTUS46 KLOX 231728
TAFPMD
TAF
KPMD 231728Z 2318/2418 VRB03KT P6SM SKC
     FM232200 24014KT P6SM SKC
     FM240500 VRB03KT P6SM SKC
     FM240900 20008KT P6SM SKC=

USA.gov is the U.S. government's official web portal to all federal, state and local government web resources and services.